Wind_Speed
12 12 13 15 16 17 16 16 16 16 16 16 16 16 16 15 15 15 14 14 13 12 11 11 10 9 8 8 7 7 7 6 5 4 4 4 4 5 6 7 8 8
13 13 13 14 15 16 16 16 17 17 16 16 15 15 15 15 14 14 14 13 13 12 11 11 10 9 9 8 7 7 6 6 5 4 4 4 4 4 4 5 6 6
14 14 14 14 14 14 15 16 16 16 17 16 16 15 15 14 14 14 14 13 13 12 11 11 10 9 9 8 7 7 6 6 5 5 4 4 4 4 4 4 4 5
16 15 15 15 14 14 14 15 15 15 15 15 15 15 15 15 14 14 14 13 13 12 11 11 10 9 9 8 7 7 6 5 5 4 4 3 3 3 3 4 4 5
17 16 16 15 15 15 14 15 15 15 14 14 15 15 15 14 14 14 14 13 13 12 11 11 10 9 9 8 7 7 6 5 5 4 4 4 3 4 4 4 4 5
18 17 16 16 16 16 16 15 15 15 15 15 14 14 14 14 14 14 14 13 13 12 12 11 10 9 9 8 8 7 7 6 6 6 5 5 5 5 5 5 5 5
19 19 18 17 17 17 17 17 16 16 15 15 15 15 15 14 14 14 14 14 14 13 13 12 12 11 10 10 9 8 8 8 8 7 7 7 7 6 6 6 7 7
20 20 19 19 18 18 18 18 18 18 17 16 15 15 14 14 15 15 15 16 15 15 14 14 14 13 13 13 12 11 10 9 9 9 8 8 8 8 8 8 9 9
20 20 21 21 20 19 19 18 19 19 19 18 16 15 14 13 14 15 15 15 15 15 14 14 14 14 14 14 14 13 13 12 11 10 9 9 9 9 9 10 10 10
21 21 21 21 22 22 21 20 19 19 19 19 18 16 14 12 12 13 14 14 14 14 14 14 14 14 14 14 15 15 15 14 14 13 11 10 10 9 9 10 10 10
22 22 22 22 23 23 23 22 21 20 20 20 19 18 16 13 11 12 12 13 14 14 14 13 13 14 14 15 16 16 16 16 16 15 14 13 12 11 10 10 10 10
24 24 24 24 24 25 25 24 24 23 22 21 21 20 19 16 14 13 13 13 13 13 14 14 14 14 14 15 16 17 17 17 17 17 16 15 14 13 12 11 10 9
25 26 26 26 26 26 26 26 25 25 24 24 23 22 21 20 19 17 16 15 14 14 14 14 14 15 15 15 16 17 17 18 18 17 17 16 16 16 15 14 13 11
26 25 25 26 26 27 27 26 26 26 26 25 25 24 24 24 23 22 21 19 18 17 16 16 16 16 17 16 16 16 17 18 18 18 17 17 17 17 17 16 16 15
28 27 26 26 27 27 27 26 26 26 26 26 26 26 26 26 26 25 24 23 22 20 19 18 18 18 19 18 17 16 16 17 17 18 18 18 18 18 18 18 18 18
29 29 28 28 28 28 27 27 26 26 26 27 27 27 27 27 27 27 26 25 25 23 22 21 20 20 21 20 19 18 17 16 16 16 17 17 18 18 18 19 19 19
30 30 29 29 29 29 28 27 27 27 27 28 28 28 28 28 27 27 27 27 26 25 23 22 22 22 22 22 21 21 20 19 17 16 16 16 16 17 18 19 19 19
31 31 30 30 30 30 30 29 29 29 29 29 29 28 28 28 28 28 28 28 27 26 25 24 24 24 24 24 23 23 22 21 20 19 17 16 16 16 17 18 18 19
32 31 31 31 31 31 32 31 31 31 30 30 29 28 28 28 28 29 29 29 28 27 27 26 26 26 26 25 25 25 25 24 23 22 20 19 18 18 17 18 18 18
35 34 32 32 32 32 33 32 31 31 31 30 29 29 29 29 30 31 31 30 29 28 28 27 28 28 29 28 28 28 27 26 25 24 23 22 22 21 20 20 20 20
35 35 34 33 32 32 32 32 30 30 30 29 29 31 31 32 33 33 33 32 31 29 28 29 29 30 30 30 30 30 29 28 27 26 25 25 25 25 24 24 23 22
26 29 31 31 31 31 31 31 31 31 31 31 32 33 34 34 34 35 36 35 32 30 29 30 31 31 31 32 32 32 31 30 28 27 27 27 28 28 28 27 27 26
19 21 22 23 25 26 26 26 27 30 32 33 34 34 35 35 35 35 35 34 32 31 30 31 33 33 32 32 33 33 33 32 30 29 28 28 29 30 30 30 29 29
21 20 20 20 20 21 20 19 20 22 25 27 29 31 33 34 35 36 35 33 33 32 32 33 35 35 34 34 34 34 34 34 32 30 29 29 29 31 31 31 31 31
25 25 25 25 24 23 22 21 21 22 21 21 22 24 26 28 31 34 35 34 33 32 33 34 36 37 37 36 35 35 36 36 34 32 30 29 29 30 31 32 33 33
27 26 26 27 26 25 25 25 26 27 27 26 25 24 23 24 25 27 28 29 29 30 32 33 34 36 38 37 36 36 37 38 36 34 31 30 30 30 30 32 33 34
Wind_Direction
196 196 191 182 176 176 178 179 178 177 179 180 181 182 184 186 188 189 189 189 190 193 194 197 198 197 197 198 198 198 201 204 205 205 195 181 178 174 165 163 163 160
202 203 201 194 186 181 180 182 181 180 180 182 183 184 185 186 189 191 193 193 195 197 197 196 196 196 196 195 196 196 196 196 193 191 188 179 178 182 180 174 170 166
206 207 206 204 200 192 187 187 187 184 184 184 185 186 187 188 190 192 195 196 197 198 196 195 195 195 195 194 192 193 193 190 186 187 189 188 185 188 193 191 183 178
207 210 210 210 209 206 200 197 196 194 191 189 189 190 191 191 191 194 196 197 198 199 198 197 197 197 197 197 193 192 196 196 192 192 197 202 204 207 209 205 200 197
209 212 214 213 213 214 212 209 206 204 201 199 199 198 198 197 198 200 201 201 202 204 205 205 205 205 206 207 205 202 206 212 212 212 214 219 224 231 238 232 223 219
208 212 214 216 216 218 218 217 216 214 211 211 211 209 209 208 209 210 211 211 212 213 216 217 218 218 219 222 222 220 222 226 230 233 235 238 241 246 253 256 254 248
208 210 213 215 217 219 220 221 222 221 219 218 219 219 220 220 220 221 222 222 222 223 225 228 230 231 231 233 235 233 233 235 237 239 242 246 250 253 258 261 263 262
207 209 211 214 217 219 220 221 223 223 223 223 223 224 226 228 229 229 229 229 229 230 232 233 235 236 237 238 239 239 238 239 240 240 240 242 245 248 253 258 259 260
206 207 209 212 215 218 220 222 224 224 225 226 226 226 229 232 232 232 232 233 233 234 235 236 237 237 238 239 240 240 240 239 240 240 239 239 239 239 243 248 251 253
207 208 209 211 214 217 219 221 223 224 226 228 228 229 232 234 234 233 232 233 235 235 236 237 239 241 242 242 241 241 240 239 239 239 237 237 236 235 236 238 241 243
207 208 209 211 213 216 218 220 222 222 224 227 228 229 230 232 234 234 235 236 237 239 241 241 243 246 247 246 244 242 241 240 239 238 236 236 235 235 235 235 236 237
207 207 209 210 212 214 216 218 221 221 222 223 224 225 226 227 228 230 233 238 241 243 246 248 249 250 250 248 247 244 242 241 240 239 238 238 238 237 238 239 239 237
214 211 210 211 213 215 216 217 219 221 223 223 223 223 224 224 224 224 225 230 236 242 246 250 253 255 254 251 249 246 245 243 242 240 240 240 240 240 240 241 242 241
221 219 216 216 217 219 219 219 220 221 223 225 225 225 225 225 224 223 222 222 225 232 238 243 249 252 254 253 252 251 250 249 246 243 241 239 240 241 241 242 242 241
219 221 222 222 222 221 222 223 224 223 224 225 227 228 228 228 227 226 225 223 222 224 229 236 242 247 249 251 252 253 252 252 252 249 246 242 240 239 240 241 241 241
218 219 221 225 227 226 224 224 225 226 228 228 227 228 230 233 233 233 232 231 228 225 225 229 236 242 246 248 249 250 250 249 249 249 249 248 246 245 243 242 242 242
222 222 222 225 229 231 230 228 226 226 229 231 231 230 231 233 235 237 237 238 238 235 232 231 234 239 243 247 249 250 250 249 246 245 245 246 248 248 249 248 248 247
225 226 226 226 229 233 234 233 231 230 230 232 234 234 234 235 235 236 237 239 241 242 240 238 238 239 242 245 248 250 251 251 250 247 245 243 243 245 247 249 251 251
227 229 229 229 230 233 234 233 234 234 233 233 236 238 238 239 239 238 238 238 239 241 242 242 242 243 244 245 247 249 250 250 250 250 248 247 245 243 242 243 245 248
231 231 231 230 230 231 233 233 234 234 232 232 236 239 240 241 242 241 240 239 238 238 241 243 245 245 245 246 247 248 249 250 250 250 250 250 249 248 247 245 243 243
230 230 230 230 230 232 234 235 234 234 233 233 235 236 238 241 243 242 241 240 238 237 239 241 244 247 248 249 249 249 250 250 251 252 252 252 252 252 252 252 251 249
227 228 229 229 230 232 236 238 239 239 238 237 235 235 237 240 242 241 240 240 239 239 240 242 244 245 248 251 252 253 253 253 252 252 253 254 255 255 255 255 256 257
229 228 227 227 227 229 233 237 240 240 240 240 239 238 240 241 241 239 238 237 238 239 242 245 246 246 247 249 252 254 255 255 254 253 253 255 256 256 256 257 258 259
240 237 236 236 236 236 237 238 236 234 236 239 240 240 242 243 242 241 242 242 241 241 243 245 247 247 247 248 250 253 254 254 253 252 252 253 255 257 258 258 258 258
250 248 247 248 248 249 249 247 244 241 242 244 243 241 242 243 243 245 248 250 248 247 248 248 246 246 247 248 250 252 254 253 252 250 250 252 254 257 259 260 260 260
258 257 254 253 253 252 252 253 252 251 252 253 251 249 247 248 248 249 253 254 253 253 254 252 249 247 248 249 250 251 254 255 253 249 248 249 251 254 257 259 261 263
Height
5954 5955 5957 5957 5957 5958 5959 5959 5960 5960 5961 5962 5962 5963 5963 5964 5964 5965 5966 5967 5967 5968 5969 5969 5970 5971 5971 5972 5972 5973 5973 5973 5974 5974 5974 5975 5975 5975 5975 5975 5975 5975
5954 5955 5956 5957 5958 5958 5959 5959 5960 5960 5961 5962 5963 5963 5964 5964 5965 5965 5966 5967 5967 5968 5968 5969 5969 5970 5971 5971 5972 5972 5973 5973 5973 5974 5974 5974 5975 5975 5975 5975 5975 5975
5953 5954 5956 5957 5957 5958 5959 5959 5960 5961 5961 5962 5962 5963 5964 5965 5965 5966 5966 5967 5967 5968 5968 5969 5969 5969 5970 5971 5971 5972 5972 5973 5973 5973 5974 5974 5974 5975 5975 5975 5975 5975
5952 5954 5955 5956 5958 5958 5959 5960 5960 5961 5961 5962 5962 5963 5964 5965 5965 5966 5967 5967 5968 5968 5969 5969 5969 5969 5970 5970 5971 5971 5972 5972 5972 5973 5973 5974 5974 5975 5975 5975 5975 5975
5951 5953 5954 5956 5957 5958 5959 5960 5960 5961 5961 5962 5962 5963 5963 5964 5965 5966 5967 5967 5968 5969 5969 5969 5969 5970 5970 5970 5971 5971 5971 5972 5972 5973 5973 5974 5974 5975 5975 5975 5975 5975
5949 5951 5953 5955 5956 5957 5959 5960 5960 5961 5961 5962 5962 5963 5963 5964 5964 5965 5966 5967 5968 5968 5969 5969 5970 5970 5970 5970 5971 5971 5971 5971 5972 5972 5973 5973 5974 5974 5975 5975 5975 5975
5948 5949 5951 5953 5955 5956 5957 5959 5960 5961 5961 5962 5962 5963 5963 5964 5964 5965 5966 5966 5967 5968 5968 5969 5969 5970 5970 5970 5971 5971 5971 5971 5971 5971 5972 5972 5973 5973 5974 5975 5975 5975
5946 5948 5950 5951 5953 5954 5956 5957 5958 5959 5961 5961 5962 5962 5963 5964 5964 5965 5965 5966 5966 5967 5968 5968 5969 5969 5969 5970 5970 5970 5970 5971 5971 5971 5971 5971 5971 5972 5973 5973 5974 5975
5945 5947 5948 5950 5951 5952 5954 5955 5956 5957 5959 5960 5961 5961 5962 5963 5963 5964 5964 5965 5965 5966 5967 5967 5968 5968 5968 5969 5969 5969 5970 5970 5970 5970 5970 5970 5970 5971 5971 5972 5972 5973
5944 5945 5947 5948 5949 5951 5952 5953 5954 5955 5957 5958 5960 5961 5961 5962 5962 5963 5964 5964 5964 5965 5965 5966 5967 5968 5968 5968 5968 5968 5968 5969 5969 5969 5969 5970 5970 5970 5970 5970 5971 5972
5941 5943 5944 5945 5947 5948 5949 5950 5952 5953 5955 5956 5958 5959 5960 5960 5961 5962 5962 5963 5963 5964 5964 5965 5966 5966 5967 5967 5967 5967 5967 5967 5967 5968 5968 5969 5969 5969 5970 5970 5970 5971
5939 5940 5941 5942 5943 5944 5946 5947 5949 5951 5952 5954 5955 5956 5957 5958 5959 5959 5960 5961 5962 5963 5963 5964 5964 5964 5965 5966 5966 5966 5966 5966 5966 5966 5967 5968 5968 5969 5969 5969 5969 5970
5938 5939 5939 5940 5941 5941 5942 5944 5946 5948 5950 5951 5953 5954 5955 5956 5956 5956 5957 5958 5959 5960 5961 5962 5962 5962 5963 5963 5964 5964 5964 5964 5965 5965 5966 5966 5967 5968 5968 5968 5968 5969
5938 5939 5939 5940 5940 5940 5940 5941 5943 5945 5947 5949 5951 5952 5953 5954 5954 5954 5954 5954 5955 5957 5958 5959 5960 5961 5961 5961 5962 5963 5963 5964 5964 5964 5964 5965 5965 5966 5966 5967 5967 5967
5934 5936 5938 5939 5939 5939 5939 5940 5941 5943 5944 5946 5948 5950 5951 5952 5953 5953 5953 5953 5952 5953 5954 5956 5958 5959 5959 5959 5960 5961 5962 5963 5963 5963 5963 5963 5964 5964 5965 5965 5965 5965
5930 5932 5934 5935 5937 5938 5938 5938 5940 5941 5942 5943 5944 5946 5948 5950 5951 5952 5953 5952 5951 5951 5951 5953 5955 5956 5957 5958 5958 5959 5960 5960 5961 5962 5962 5962 5963 5963 5963 5963 5963 5963
5927 5929 5930 5932 5934 5936 5937 5937 5938 5939 5940 5941 5942 5943 5945 5947 5948 5950 5951 5951 5951 5951 5950 5951 5952 5953 5954 5955 5956 5957 5957 5958 5959 5960 5960 5961 5961 5961 5961 5961 5961 5962
5924 5926 5927 5929 5932 5934 5935 5936 5936 5937 5938 5939 5940 5941 5942 5944 5945 5946 5947 5948 5949 5950 5949 5949 5949 5950 5951 5953 5954 5954 5955 5956 5957 5958 5958 5959 5959 5959 5959 5959 5959 5959
5920 5922 5924 5926 5928 5930 5931 5932 5933 5934 5935 5937 5938 5940 5941 5942 5942 5943 5943 5944 5946 5947 5947 5948 5948 5948 5948 5949 5951 5951 5952 5953 5955 5955 5956 5956 5956 5957 5957 5956 5956 5956
5917 5918 5920 5922 5924 5926 5927 5928 5929 5930 5932 5934 5936 5937 5938 5939 5939 5940 5940 5941 5942 5943 5944 5945 5945 5945 5946 5946 5947 5948 5949 5951 5952 5953 5954 5954 5954 5954 5954 5954 5954 5954
5913 5914 5916 5918 5919 5921 5923 5924 5926 5927 5929 5930 5932 5933 5934 5935 5936 5936 5937 5938 5939 5939 5940 5941 5941 5942 5943 5944 5944 5945 5946 5948 5950 5951 5952 5953 5953 5953 5952 5952 5952 5952
5910 5911 5913 5914 5916 5918 5919 5921 5922 5924 5925 5926 5928 5928 5929 5930 5932 5932 5933 5935 5936 5936 5936 5936 5937 5938 5939 5940 5941 5942 5944 5946 5947 5949 5950 5951 5951 5951 5950 5950 5950 5950
5908 5909 5910 5911 5912 5914 5915 5916 5918 5919 5921 5922 5923 5925 5926 5927 5928 5929 5930 5932 5933 5932 5932 5933 5933 5934 5935 5936 5937 5939 5941 5942 5944 5945 5946 5947 5948 5948 5948 5948 5948 5947
5905 5906 5908 5909 5909 5910 5912 5913 5914 5915 5917 5918 5920 5921 5922 5923 5924 5925 5927 5929 5929 5928 5928 5929 5930 5930 5931 5931 5933 5935 5937 5938 5939 5941 5942 5943 5943 5944 5945 5945 5945 5945
5902 5904 5905 5906 5907 5908 5909 5911 5912 5913 5914 5915 5916 5918 5919 5919 5920 5922 5923 5923 5923 5923 5924 5925 5926 5926 5927 5927 5928 5930 5933 5935 5936 5936 5937 5938 5939 5940 5941 5942 5942 5942
5898 5900 5902 5903 5904 5905 5906 5908 5909 5909 5910 5912 5913 5914 5915 5915 5916 5917 5918 5918 5918 5919 5920 5921 5921 5923 5923 5923 5924 5925 5928 5930 5931 5932 5933 5934 5935 5936 5937 5938 5938 5938